User: anonymous   Login
Location: Domont
(49.0278°N, 2.3264°E)
Time: 08:09:14
(UTC+00:00)
Language:

deb Agena D - Orbit

View from above orbital plane
View from above orbital plane
View from above satellite
View from above satellite

Ground track
Ground track

The orbit data is extracted from the following two-line orbital elements,

1 04736U 70025CK  22329.63860700  .00000225  00000-0  18026-3 0  9991
2 04736 100.0610 203.7993 0091131  90.2025 270.9579 14.00317249664619
Epoch (UTC): 25 November 2022 15:19:35
Eccentricity: 0.0091131
inclination: 100.0610°
perigee height: 826 km
apogee height: 959 km
right ascension of ascending node: 203.7993°
argument of perigee: 90.2025°
revolutions per day: 14.00317249
mean anomaly at epoch: 270.9579°
orbit number at epoch: 66461

The dashed part of the orbit path shows where the satellite is in the earth's shadow,  

DLR